Regional Weather Roundup
Issued by NWS

Home | Current Version | Previous Version | Graphics & Text | Print | Product List | Glossary Off
Versions: 1 2 3 4 5 6 7 8 9 10 11 12 13 14 15 16 17 18 19 20 21 22 23 24 25 26 27 28 29 30 31 32 33 34 35 36 37 38 39 40 41 42 43 44 45 46 47 48 49 50

000
ASUS43 KDMX 201707
RWRIA

WEATHER ROUNDUP FOR IOWA
NATIONAL WEATHER SERVICE DES MOINES IA
1100 AM CST SAT DEC 20 2014

NOTE: "FAIR" INDICATES FEW OR NO CLOUDS BELOW 12,000 FEET WITH NO
SIGNIFICANT WEATHER AND/OR OBSTRUCTIONS TO VISIBILITY.

* - THESE STATIONS ARE NOT NWS STATIONS...THUS NOT UNDER NWS
QUALITY CONTROL.  THEY ALSO DO NOT REPORT WEATHER SUCH
AS PRECIPITATION OR FOG.

IAZ001>003-012>014-020>022-031>034-043>046-201800-
   NORTHWEST IOWA

CITY           SKY/WX    TMP DP  RH WIND       PRES   REMARKS
CARROLL *      CLOUDY    32  32 100 S8        30.13F FOG     WCI  25
CHEROKEE *     CLOUDY    32  32 100 S6        30.12S FOG     WCI  26
DENISON *      CLOUDY    32  32 100 S8        30.10F FOG     WCI  25
LE MARS *      CLOUDY    32  30  93 S10       30.11F WCI  24
ORANGE CITY *  CLOUDY    32  28  86 S9        30.09F FOG     WCI  24
SHELDON *      CLOUDY    30  30 100 S12       30.09S FOG     WCI  21
SIOUX CITY     CLOUDY    33  30  88 S9        30.11F WCI  25
SPENCER        CLOUDY    31  28  89 S10       30.11F FOG     WCI  22
STORM LAKE *   CLOUDY    30  30 100 S10       30.12S FOG     WCI  21
$$

IAZ055>058-069>071-079>083-090>094-201800-
   SOUTHWEST IOWA

CITY           SKY/WX    TMP DP  RH WIND       PRES   REMARKS
ATLANTIC *     CLOUDY    32  32 100 S8        30.13F FOG     WCI  25
AUDUBON *      CLOUDY    32  27  80 S5        30.14F HAZE    WCI  27
CLARINDA *     CLOUDY    34  34 100 SE5       30.16F FOG     WCI  30
COUNCIL BLFS * CLOUDY    32  32 100 S7        30.11S FOG     WCI  26
CRESTON *      CLOUDY    32  32 100 S12       30.15S FOG     WCI  23
HARLAN  *      CLOUDY    32  32 100 S6        30.16S FOG     WCI  26
LAMONI         CLOUDY    32  31  96 S7        30.17S FOG     WCI  26
RED OAK *      CLOUDY    34  34 100 S9        30.14F FOG     WCI  26
SHENANDOAH *   CLOUDY    34  34 100 S7        30.15F FOG     WCI  28
$$

IAZ047>049-059>061-072>074-084-201800-
   CENTRAL IOWA

CITY           SKY/WX    TMP DP  RH WIND       PRES   REMARKS
AMES           CLOUDY    31  28  89 SE5       30.18R WCI  26
ANKENY *       CLOUDY    32  32 100 S5        30.18S WCI  27
CHARITON *     CLOUDY    34  32  93 S9        30.17F FOG     WCI  26
DES MOINES     CLOUDY    34  30  85 S6        30.18S FOG     WCI  29
GRINNELL*      LGT RAIN  32  32 100 S7        30.19S WCI  26
KNOXVILLE *    CLOUDY    34  32  93 SE5       30.18R FOG     WCI  30
MARSHALLTOWN   CLOUDY    31  29  92 S7        30.17F FOG     WCI  24
PELLA *        FOG       32  32 100 SE3       30.20F VSB 3/4
PERRY *        CLOUDY    32  32 100 S7        30.16F FOG     WCI  26
$$

IAZ004>006-015-016-023>025-035-036-201800-
   NORTH CENTRAL IOWA

CITY           SKY/WX    TMP DP  RH WIND       PRES   REMARKS
ALGONA *       CLOUDY    30  30 100 S10       30.15S WCI  21
CLARION *      CLOUDY    30  30 100 S6        30.16S WCI  24
ESTHERVILLE    CLOUDY    29  27  92 S12       30.12S WCI  19
FORT DODGE *   CLOUDY    30  27  86 S7        30.16S WCI  23
MASON CITY     CLOUDY    30  29  96 S10       30.17S FOG     WCI  21
FOREST CITY *  CLOUDY    32  28  86 S9        30.15S WCI  24
IOWA FALLS *   CLOUDY    30  28  93 S9        30.18S WCI  22
$$

IAZ007>011-017>019-026>030-037>042-050>054-066-201800-
   NORTHEAST IOWA

CITY           SKY/WX    TMP DP  RH WIND       PRES   REMARKS
CEDAR RAPIDS   CLOUDY    31  29  92 S7        30.21S FOG     WCI  24
CHARLES CITY * FOG       30  30 100 S8        30.18S VSB 1   WCI  23
CLINTON *      MOSUNNY   30  25  80 SE9       30.28F WCI  22
DECORAH *      CLOUDY    28  28 100 S8        30.17F FOG     WCI  20
DUBUQUE        CLOUDY    29  25  85 SE9       30.22F FOG     WCI  20
MONTICELLO *   CLOUDY    30  28  93 SE8       30.22F WCI  23
OELWEIN *      CLOUDY    30  30 100 S10       30.19F FOG     WCI  21
WATERLOO       CLOUDY    31  30  96 S8        30.19S FOG     WCI  23
$$

IAZ064-065-067-068-078-201800-
   EAST CENTRAL IOWA

CITY           SKY/WX    TMP DP  RH WIND       PRES   REMARKS
DAVENPORT      CLOUDY    31  24  75 SE9       30.25F WCI  23
IOWA CITY      CLOUDY    31  28  89 SE7       30.24F FOG     WCI  24
MT. PLEASANT * CLOUDY    34  30  86 SE8       30.23F FOG     WCI  27
MUSCATINE *    CLOUDY    32  28  86 SE6       30.25F HAZE    WCI  26
QUAD CITIES    CLOUDY    32  25  75 SE7       30.25F HAZE    WCI  26
$$

IAZ062-063-075>077-085>089-095>099-201800-
   SOUTHEAST IOWA

CITY           SKY/WX    TMP DP  RH WIND       PRES   REMARKS
BURLINGTON     CLOUDY    34  29  82 SE6       30.24F HAZE    WCI  29
FAIRFIELD *    CLOUDY    32  30  93 SE6       30.21F FOG     WCI  26
FORT MADISON * CLOUDY    36  32  87 SE6       30.24F FOG     WCI  31
KEOKUK *       CLOUDY    36  32  87 SE5       30.23F FOG     WCI  32
OSKALOOSA *    FOG       32  32 100 S6        30.21S VSB 1   WCI  26
CENTERVILLE *  FOG       32  32 100 S5        30.21S VSB 1/2 WCI  27
OTTUMWA        CLOUDY    33  31  92 S8        30.20S FOG     WCI  26
WASHINGTON *   CLOUDY    34  34 100 S7        30.22F FOG     WCI  28
$$

ABBREVIATIONS USED IN REMARKS
   TC - TEMPERATURES IN CELSIUS
  WCI - WIND CHILL INDEX
   HX - HEAT INDEX
  VSB - VISIBILITY
$$




USA.gov is the U.S. government's official web portal to all federal, state and local government web resources and services.